Location: Azul
(36.7830°S, 59.8500°W)
Time: 00:48:56
(UTC-03:00)

DELFI C3 - Pass Details

Date: 26 October 2021
Orbit: 529 x 543 km, 97.4° (Epoch: 30 November)

Event Time Altitude Azimuth Distance (km) Brightness Sun altitude
Rises 21:07:43 0° 173° (S) 2,736 ? -19.1°
Reaches altitude 10° 21:09:53 10° 176° (S) 1,833 ? -19.5°
Maximum altitude 21:13:48 59° 256° (WSW) 633 ? -20.1°
Enters shadow 21:17:37 10° 335° (NNW) 1,795 ? -20.8°
